Willimantic, CT

5:52 AM EDT on October 17, 2017 (GMT -0400)
Windham

Weather History for KIJD - August, 2014

Change the Weather History Date:

Saturday, August 9, 2014

  Actual Average Record
Temperature  
Mean Temperature 70 °F -  
Max Temperature 86 °F 82 °F 100 °F (2001)
Min Temperature 54 °F 59 °F 44 °F (1989)
Cooling Degree Days 5    
Growing Degree Days 20 (Base 50)    
Moisture  
Dew Point 55 °F    
Average Humidity 67    
Maximum Humidity 97    
Minimum Humidity 30    
Precipitation  
Precipitation 0.00 in - - ()
Sea Level Pressure  
Sea Level Pressure 30.08 in    
Wind  
Wind Speed 3 mph (NNW)    
Max Wind Speed 12 mph    
Max Gust Speed 16 mph    
Visibility 9 miles    
Events      
Averages and records for this station are not official NWS values.
T = Trace of Precipitation, MM = Missing Value Source: NWS Daily Summary

Daily Weather History Graph

Daily Weather History Graph

Search for Another Location

Airport or City:

Trip Planner

Search our weather history database for the weather conditions in past years. The results will help you decide how hot, cold, wet, or windy it might be!

Date:

Astronomy

Aug. 09, 2014 Rise Set
Actual Time 5:50 AM EDT 7:56 PM EDT
Civil Twilight 5:20 AM EDT 8:27 PM EDT
Nautical Twilight 4:42 AM EDT 9:04 PM EDT
Astronomical Twilight 4:01 AM EDT 9:45 PM EDT
Moon 6:55 PM EDT (8/9) 4:28 AM EDT (8/9)
Length of Visible Light 15h 06m
Length of Day
14h 05m
Waxing Gibbous, 98% of the Moon is Illuminated
Aug 9
Waxing Gibbous
Aug 10
Full
Aug 17
Last Quarter
Aug 25
New
Sep 2
First Quarter

Hourly Weather History & Observations

Time (EDT) Temp. Heat Index Dew Point Humidity Pressure Visibility Wind Dir Wind Speed Gust Speed Precip Events Conditions
12:52 AM 59.0 °F - 55.9 °F 90% 30.06 in 10.0 mi NE 3.5 mph - N/A   Clear
1:52 AM 57.9 °F - 55.0 °F 90% 30.05 in 10.0 mi Calm Calm - N/A   Clear
2:52 AM 57.9 °F - 55.0 °F 90% 30.05 in 10.0 mi Calm Calm - N/A   Clear
3:52 AM 57.0 °F - 54.0 °F 89% 30.06 in 10.0 mi Calm Calm - N/A   Clear
4:52 AM 55.0 °F - 53.1 °F 93% 30.07 in 10.0 mi Calm Calm - N/A   Clear
5:52 AM 54.0 °F - 52.0 °F 93% 30.09 in 10.0 mi Calm Calm - N/A   Clear
6:18 AM 54.0 °F - 52.0 °F 93% 30.10 in 1.5 mi Calm Calm - N/A   Partly Cloudy
6:28 AM 54.0 °F - 53.1 °F 97% 30.10 in 2.0 mi Calm Calm - N/A   Mostly Cloudy
6:44 AM 55.9 °F - 54.0 °F 93% 30.10 in 5.0 mi Calm Calm - N/A   Overcast
6:52 AM 57.0 °F - 54.0 °F 89% 30.10 in 10.0 mi Calm Calm - N/A   Mostly Cloudy
7:52 AM 61.0 °F - 55.9 °F 83% 30.11 in 10.0 mi Calm Calm - N/A   Clear
8:52 AM 68.0 °F - 57.9 °F 70% 30.11 in 10.0 mi Calm Calm - N/A   Clear
9:52 AM 75.9 °F - 57.0 °F 52% 30.10 in 10.0 mi North 9.2 mph - N/A   Clear
10:52 AM 79.0 °F - 55.9 °F 45% 30.09 in 10.0 mi NNW 4.6 mph - N/A   Clear
11:52 AM 81.0 °F 80.8 °F 55.9 °F 42% 30.08 in 10.0 mi Variable 4.6 mph - N/A   Clear
1:52 PM 82.9 °F 81.8 °F 53.1 °F 36% 30.06 in 10.0 mi NNW 9.2 mph 16.1 mph N/A   Scattered Clouds
2:52 PM 86.0 °F - 51.1 °F 30% 30.05 in 10.0 mi North 11.5 mph - 0.00 in   Scattered Clouds
3:52 PM 84.9 °F - 51.1 °F 31% 30.05 in 10.0 mi NNW 8.1 mph - N/A   Partly Cloudy
4:52 PM 84.0 °F - 51.1 °F 32% 30.04 in 10.0 mi WNW 6.9 mph - N/A   Clear
5:52 PM 84.0 °F 82.6 °F 54.0 °F 35% 30.05 in 10.0 mi WNW 6.9 mph - N/A   Partly Cloudy
6:52 PM 82.9 °F 81.9 °F 54.0 °F 37% 30.06 in 10.0 mi NW 5.8 mph - N/A   Overcast
7:52 PM 79.0 °F - 57.9 °F 48% 30.07 in 10.0 mi NNW 4.6 mph - N/A   Mostly Cloudy
8:52 PM 73.9 °F - 61.0 °F 64% 30.08 in 10.0 mi ENE 3.5 mph - N/A   Partly Cloudy
9:52 PM 69.1 °F - 61.0 °F 75% 30.10 in 10.0 mi Calm Calm - N/A   Partly Cloudy